Home   Weather   Weinheim   Past weeks

Flag for Germany Past Weather in Weinheim, Baden-Württemberg, Germany — Yesterday and Last 2 Weeks

Now
48 °F

Partly sunny.


Feels Like: 44 °F
Forecast: 47 / 51 °F
Wind: 9 mph from South

Location: Mannheim City

Current Time: Jan 24, 2018 at 11:34:14 am

Latest Report: Jan 24, 2018 at 10:50 am


Visibility: N/A

Pressure: 30.24 "Hg

Humidity: 94%

Dew Point: 46 °F

Location of WeinheimLocation

Past Weather in Weinheim — Graph

°F

Weinheim Temperature Yesterday

Maximum temperature yesterday: 48 °F (at 2:20 pm)
Minimum temperature yesterday: 45 °F (at 5:50 am)
Average temperature yesterday: 46 °F

High & Low Weather Summary for the Past Weeks

 TemperatureHumidityPressure
High54 °F (Jan 18, 3:20 pm)100% (Jan 9, 10:20 am)30.33 "Hg (Jan 9, 10:20 am)
Low32 °F (Jan 14, 7:20 pm)47% (Jan 18, 3:20 pm)29.42 "Hg (Jan 16, 1:20 pm)
Average43 °F83%29.92 "Hg
* Reported Jan 9 10:20 am — Jan 24 10:20 am, Weinheim. Weather by CustomWeather, © 2018

Note: Actual official high and low records may vary slightly from our data, if they occured in-between our weather recording intervals... More about our weather records

Advertising

Weinheim Weather History for the Previous 24 Hours

Scroll right to see more
 ConditionsComfort  
Time TempWeatherWind HumidityBarometerVisibility
10:20 am
Wed, Jan 24
48 °FPartly sunny.8 mph94%30.24 "HgN/A
9:50 am48 °FOvercast.9 mph94%30.24 "HgN/A
9:20 am48 °FCloudy.9 mph94%30.24 "HgN/A
8:50 am48 °FCloudy.10 mph94%30.24 "HgN/A
8:20 am46 °FCloudy.8 mph93%30.24 "HgN/A
7:50 am46 °FOvercast.10 mph93%30.24 "HgN/A
7:20 am46 °FMostly cloudy.12 mph93%30.24 "HgN/A
6:50 am46 °FPassing clouds.12 mph93%30.24 "HgN/A
6:20 am46 °FMostly cloudy.10 mph93%30.24 "HgN/A
5:50 am46 °FPassing clouds.10 mph93%30.24 "HgN/A
12:20 am46 °FPassing clouds.10 mph76%30.27 "HgN/A
11:50 pm
Tue, Jan 23
46 °FPartly cloudy.8 mph76%30.27 "HgN/A
11:20 pm46 °FPassing clouds.8 mph76%30.27 "HgN/A
10:50 pm46 °FPassing clouds.7 mph76%30.27 "HgN/A
10:20 pm46 °FPassing clouds.8 mph76%30.27 "HgN/A
9:50 pm46 °FPassing clouds.9 mph76%30.27 "HgN/A
9:20 pm46 °FPassing clouds.9 mph82%30.27 "HgN/A
8:50 pm46 °FPartly cloudy.7 mph82%30.27 "HgN/A
8:20 pm46 °FPassing clouds.8 mph82%30.27 "HgN/A
7:50 pm46 °FPassing clouds.8 mph82%30.27 "HgN/A
6:50 pm46 °FPassing clouds.7 mph82%30.30 "HgN/A
6:20 pm46 °FPassing clouds.7 mph82%30.30 "HgN/A
5:50 pm46 °FPassing clouds.7 mph82%30.27 "HgN/A
5:20 pm48 °FPassing clouds.7 mph82%30.27 "HgN/A
4:50 pm46 °FPartly sunny.7 mph82%30.30 "HgN/A
4:20 pm48 °FPartly sunny.8 mph76%30.27 "HgN/A
3:50 pm48 °FPartly sunny.8 mph76%30.27 "HgN/A
3:20 pm48 °FPartly sunny.7 mph76%30.27 "HgN/A
2:50 pm48 °FPartly sunny.8 mph76%30.30 "HgN/A
2:20 pm48 °FPartly sunny.9 mph76%30.30 "HgN/A
1:50 pm46 °FPartly sunny.8 mph87%30.30 "HgN/A
1:20 pm46 °FOvercast.7 mph87%30.30 "HgN/A
12:50 pm46 °FOvercast.7 mph87%30.30 "HgN/A
12:20 pm46 °FOvercast.7 mph87%30.33 "HgN/A
11:50 am45 °FOvercast.9 mph93%30.33 "HgN/A
11:20 am46 °FOvercast.7 mph87%30.33 "HgN/A
Weather by CustomWeather, © 2018

See weather overview